Regional Weather Roundup
Issued by NWS Cleveland, OH

Home | Current Version | Previous Version | Text Only | Print | Product List | Glossary Off
Versions: 1 2 3 4 5 6 7 8 9 10 11 12 13 14 15 16 17 18 19 20 21 22 23 24 25 26 27 28 29 30 31 32 33 34 35 36 37 38 39 40 41 42 43 44 45 46 47 48 49 50

000
ASUS41 KCLE 291800
RWRCLE
OHIO REGIONAL WEATHER ROUNDUP
NATIONAL WEATHER SERVICE WILMINGTON, OH
200 PM EDT SUN MAY 29 2016

NOTE: "FAIR" INDICATES FEW OR NO CLOUDS BELOW 12,000 FEET WITH NO
SIGNIFICANT WEATHER AND/OR OBSTRUCTIONS TO VISIBILITY.

OHZ001>008-015>018-024>027-034-035-043-044-291900-
   NORTHWEST OHIO

CITY           SKY/WX    TMP DP  RH WIND       PRES   REMARKS
DEFIANCE       PTSUNNY   86  61  42 SW15G21   30.01F
FINDLAY        FAIR      84  64  50 SW15      30.04F
TOLEDO EXPRESS FAIR      87  64  46 SW16      30.01F
TOLEDO EXEC    FAIR      85  62  46 SW20      30.02F
LIMA           CLOUDY    82  66  58 SW9G18    30.05F
$$

OHZ009>014-019>023-028>033-038-089-291900-
   NORTHEAST OHIO

CITY           SKY/WX    TMP DP  RH WIND       PRES   REMARKS
CLE-HOPKINS    CLOUDY    81  63  54 S12       30.08F
CLE-LAKEFRONT  FAIR      82  63  52 SW14      30.04F
CUY CO. ARPT   CLOUDY    82  68  61 SW13      30.08F
LORAIN-ELYRIA  FAIR      81  66  60 S13       30.07F
ASHTABULA      FAIR      80  67  64 SW7       30.09S
AKRON-CANTON   CLOUDY    80  60  50 SW12      30.10F
WOOSTER        NOT AVBL
MANSFIELD      FAIR      80  67  64 S12       30.10F
YOUNGSTOWN     CLOUDY    78  66  66 S6        30.10F
$$

OHZ042-051>053-060>062-070>072-077>081-291900-
  SOUTHWEST OHIO

CITY           SKY/WX    TMP DP  RH WIND       PRES   REMARKS
CINC-COVINGTON FAIR      81  67  62 S8        30.08F
CINC-LUNKEN    FAIR      83  70  64 S8        30.08F
HAMILTON       PTSUNNY   86  67  52 SW7       30.07F
DAYTON         NOT AVBL
WRIGHT-PAT AFB NOT AVBL
DAYTON GENERAL FAIR      83  64  52 S10       30.07F
WILMINGTON     FAIR      82  66  58 S13       30.10F
$$

OHZ036-037-039>041-045>050-054>059-063>069-073>076-082>088-291900-
  CENTRAL AND SOUTHEAST OHIO

CITY           SKY/WX    TMP DP  RH WIND       PRES   REMARKS
COLUMBUS       PTSUNNY   78  64  61 SW8       30.09F
OSU AIRPORT    FAIR      80  66  62 S8        30.09F
BOLTON FIELD   NOT AVBL
RICKENBACK AFB NOT AVBL
NEWARK         FAIR      81  62  52 SW6       30.09F
MARION         FAIR      81  66  60 S10       30.08F
LANCASTER      FAIR      79  67  66 S7        30.11F
ZANESVILLE     FAIR      83  62  49 S6        30.10F
NEW PHILLY     FAIR      82  64  54 SW7       30.10F
$$




USA.gov is the U.S. government's official web portal to all federal, state and local government web resources and services.